Hourly Data Report for October 04, 2017

All times are specified in Local Standard Time (LST). Add 1 hour to adjust for Daylight Saving Time where and when it is observed.

KUGAARUK CLIMATE
NUNAVUT

68°32'15.060" N
89°47'47.020" W
15.80 m
2303094
71407
NBB

Download Data

Hourly Data (October 2017)
Hourly Data Report for October 4, 2017
Temp Definition
°C
Dew Point Temp Definition
°C
Rel Hum Definition
%
Wind Dir Definition
10's deg

Wind Spd Definition
km/h
Visibility Definition
km
Stn Press Definition
kPa
Hmdx Definition


Wind Chill Definition


Weather Definition


TIME
00:00 -4.0 -5.5 90 29 48   98.46   -13 LegendNANA
01:00 -4.2 -5.4 92 30 47   98.39   -14 LegendNANA
02:00 -4.3 -5.2 93 30 44   98.34   -14 LegendNANA
03:00 -4.2 -5.1 94 29 47   98.25   -14 LegendNANA
04:00 -3.9 -5.0 92 30 46   98.15   -13 LegendNANA
05:00 -3.5 -4.5 93 31 42   98.07   -12 LegendNANA
06:00 -3.5 -4.4 93 36 26   98.11   -11 LegendNANA
07:00 -4.2 -5.8 89 3 23   98.17   -11 LegendNANA
08:00 -4.0 -6.4 83 36 25   98.19   -11 LegendNANA
09:00 -3.5 -6.7 79 36 20   98.19   -10 LegendNANA
10:00 -3.5 -6.6 80 1 15   98.22   -9 LegendNANA
11:00 -3.6 -7.8 72 1 20   98.25   -10 LegendNANA
12:00 -3.6 -8.2 71 1 21   98.23   -10 LegendNANA
13:00 -3.9 -7.6 76 1 21   98.28   -10 LegendNANA
14:00 -3.9 -7.8 74 36 20   98.31   -10 LegendNANA
15:00 -3.8 -7.7 74 35 18   98.34   -10 LegendNANA
16:00 -4.1 -7.4 78 1 21   98.37   -11 LegendNANA
17:00 -4.2 -7.4 79 2 21   98.42   -11 LegendNANA
18:00 -3.7 -7.0 78 2 20   98.43   -10 LegendNANA
19:00 -3.5 -7.8 72 2 23   98.46   -10 LegendNANA
20:00 -4.9 -8.5 76 2 18   98.49   -11 LegendNANA
21:00 -7.2 -9.5 83 29 2   98.53   -8 LegendNANA
22:00 -6.4 -8.0 88 5 8   98.57   -10 LegendNANA
23:00 -5.7 -7.8 86 1 21   98.61   -13 LegendNANA

Notes on Data Quality.

Legend

  • E = Estimated
  • M = Missing
  • NA = Not Available
  • ‡ = Partner data that is not subject to review by the National Climate Archives
Date modified: